#timestamp,LO_Frequency,Hit,Temp,Hum 
1487070015.3,286047002.0,N,0.0,0.0
1487070035.2,286047005.7,N,0.0,0.0
1487070055.9,286047003.6,N,0.0,0.0
1487070075.7,286047004.8,N,0.0,0.0
1487070095.6,286047005.1,N,0.0,0.0
1487070115.4,286047006.3,N,0.0,0.0
1487070135.2,286047010.0,N,0.0,0.0
1487070155.1,286047007.8,N,0.0,0.0
1487070156.0,286047007.8,N,0.0,0.0
1487070175.8,286047009.1,N,0.0,0.0
1487070195.6,286047008.1,N,0.0,0.0
1487070215.5,286047010.0,N,0.0,0.0
1487070235.3,286047010.7,N,0.0,0.0
1487070255.1,286047007.7,N,0.0,0.0
1487070275.9,286047008.2,N,0.0,0.0
1487070295.7,286047013.1,N,0.0,0.0
1487070315.5,286047011.7,N,0.0,0.0
1487070335.4,286047011.5,N,0.0,0.0
1487070355.2,286047013.0,N,0.0,0.0
1487070375.0,286047014.4,N,0.0,0.0
1487070375.9,286047014.4,N,0.0,0.0
1487070395.8,286047014.6,N,0.0,0.0
1487070415.6,286047017.0,Y,0.0,0.0
1487070435.4,286047008.3,N,0.0,0.0
1487070455.3,286047008.9,N,0.0,0.0
1487070475.1,286047010.5,N,0.0,0.0
1487070476.0,286047010.5,N,0.0,0.0
1487070495.8,286047009.7,N,0.0,0.0
1487070515.7,286047008.1,N,0.0,0.0
1487070535.5,286047010.2,N,0.0,0.0
1487070555.3,286047009.8,N,0.0,0.0
1487070575.2,286047010.9,Y,0.0,0.0
1487070595.7,286047005.8,N,0.0,0.0
1487070615.5,286047004.8,N,0.0,0.0
1487070635.3,286047004.8,N,0.0,0.0
1487070655.2,286047005.4,N,0.0,0.0
1487070675.9,286047003.1,N,0.0,0.0
1487070695.2,286047006.0,N,0.0,0.0
1487070715.0,286047005.2,N,0.0,0.0
1487070715.9,286047005.2,N,0.0,0.0
1487070735.7,286047006.9,N,0.0,0.0
1487070755.6,286047008.7,N,0.0,0.0
1487070775.4,286047008.3,N,0.0,0.0
1487070795.2,286047010.0,Y,0.0,0.0
1487070815.1,286046999.9,N,0.0,0.0
1487070816.0,286046999.9,N,0.0,0.0
1487070835.8,286047002.2,N,0.0,0.0
1487070855.6,286047001.7,N,0.0,0.0
1487070875.5,286047003.6,N,0.0,0.0
1487070895.3,286047003.6,N,0.0,0.0
1487070915.1,286047003.7,N,0.0,0.0
1487070935.9,286047009.0,N,0.0,0.0
1487070955.7,286047004.8,N,0.0,0.0
1487070975.5,286047005.2,N,0.0,0.0
1487070995.4,286047005.9,N,0.0,0.0
1487071015.2,286047006.6,N,0.0,0.0
1487071035.0,286047008.1,N,0.0,0.0
1487071035.9,286047008.1,N,0.0,0.0
1487071055.8,286047009.3,Y,0.0,0.0
1487071075.6,286047001.8,N,0.0,0.0
1487071095.4,286047002.9,N,0.0,0.0
1487071115.1,286047003.9,N,0.0,0.0
1487071116.0,286047003.9,N,0.0,0.0
1487071135.8,286047003.7,N,0.0,0.0
1487071155.7,286047003.3,N,0.0,0.0
1487071175.5,286047005.0,N,0.0,0.0
1487071195.3,286047009.1,Y,0.0,0.0
1487071215.2,286047003.4,N,0.0,0.0
1487071235.9,286047003.3,N,0.0,0.0
1487071255.7,286047001.3,N,0.0,0.0
1487071275.6,286047005.6,N,0.0,0.0
1487071295.4,286047005.1,N,0.0,0.0
1487071315.2,286047006.2,N,0.0,0.0
1487071335.1,286047004.8,N,0.0,0.0
1487071336.0,286047004.8,N,0.0,0.0
1487071355.8,286047004.7,N,0.0,0.0
1487071375.6,286047005.1,N,0.0,0.0
1487071395.5,286047006.7,N,0.0,0.0
1487071415.3,286047009.0,Y,0.0,0.0
1487071435.1,286047005.1,N,0.0,0.0
1487071455.9,286047001.4,N,0.0,0.0
1487071475.7,286047004.0,N,0.0,0.0
1487071495.5,286047005.0,N,0.0,0.0
1487071515.4,286047007.2,Y,0.0,0.0
1487071535.2,286047004.2,N,0.0,0.0
1487071555.0,286047001.9,N,0.0,0.0
1487071555.9,286047001.9,N,0.0,0.0
1487071575.8,286047005.9,N,0.0,0.0
1487071595.6,286047009.2,Y,0.0,0.0
1487071615.4,286047002.4,N,0.0,0.0
1487071635.3,286046999.3,N,0.0,0.0
1487071655.1,286047000.0,N,0.0,0.0
1487071656.0,286047000.0,N,0.0,0.0
1487071675.8,286047002.5,N,0.0,0.0
1487071695.7,286046998.3,N,0.0,0.0
1487071715.5,286047004.3,N,0.0,0.0
1487071735.3,286047003.3,N,0.0,0.0
1487071755.2,286047003.5,N,0.0,0.0
1487071775.9,286047005.4,N,0.0,0.0
1487071795.7,286047001.9,N,0.0,0.0
1487071815.6,286047005.5,N,0.0,0.0
1487071835.4,286047005.5,N,0.0,0.0
1487071855.2,286047003.3,N,0.0,0.0
1487071875.1,286047003.6,N,0.0,0.0
1487071876.0,286047003.6,N,0.0,0.0
1487071895.8,286047002.8,N,0.0,0.0
1487071915.6,286047000.2,N,0.0,0.0
1487071935.5,286047004.9,N,0.0,0.0
1487071955.3,286047009.2,Y,0.0,0.0
1487071975.1,286047002.8,N,0.0,0.0
1487071995.9,286047002.5,N,0.0,0.0
1487072015.7,286047001.7,N,0.0,0.0
1487072035.5,286047004.3,N,0.0,0.0
1487072055.4,286047004.0,N,0.0,0.0
1487072075.2,286047003.7,N,0.0,0.0
1487072095.0,286047004.8,N,0.0,0.0
1487072095.9,286047004.8,N,0.0,0.0
1487072115.8,286047003.0,N,0.0,0.0
1487072135.6,286047003.4,N,0.0,0.0
1487072155.4,286047003.7,N,0.0,0.0
1487072175.3,286047008.7,Y,0.0,0.0
1487072195.1,286047002.9,N,0.0,0.0
1487072196.0,286047002.9,N,0.0,0.0
1487072215.8,286047007.1,N,0.0,0.0
1487072235.7,286046996.5,N,0.0,0.0
1487072255.5,286047002.4,N,0.0,0.0
1487072275.3,286046991.8,Y,0.0,0.0
1487072295.2,286046986.4,Y,0.0,0.0
1487072315.9,286046996.5,N,0.0,0.0
1487072335.7,286046993.8,N,0.0,0.0
1487072355.5,286046997.6,N,0.0,0.0
1487072375.4,286046982.6,Y,0.0,0.0
1487072395.2,286046974.8,Y,0.0,0.0
1487072415.0,286046980.7,N,0.0,0.0
1487072415.9,286046980.7,N,0.0,0.0
1487072435.8,286046975.5,Y,0.0,0.0
1487072455.6,286046960.7,Y,0.0,0.0
1487072475.5,286046989.3,N,0.0,0.0
1487072495.3,286046977.2,N,0.0,0.0
1487072515.1,286046972.5,N,0.0,0.0
1487072535.9,286046958.7,Y,0.0,0.0
1487072555.7,286046973.9,N,0.0,0.0
1487072575.5,286046970.1,N,0.0,0.0
1487072595.4,286046970.3,N,0.0,0.0
1487072615.2,286046970.2,N,0.0,0.0
1487072635.0,286046969.1,N,0.0,0.0
1487072635.9,286046969.1,N,0.0,0.0
1487072655.8,286046969.0,N,0.0,0.0
1487072675.6,286046966.0,N,0.0,0.0
1487072695.4,286046962.8,N,0.0,0.0
1487072715.3,286046958.3,N,0.0,0.0
1487072735.1,286046855.6,Y,0.0,0.0
1487072736.0,286046855.6,Y,0.0,0.0
1487072755.8,286046979.6,N,0.0,0.0
1487072775.7,286046980.6,N,0.0,0.0
1487072795.5,286046979.1,N,0.0,0.0
1487072815.3,286046981.6,N,0.0,0.0
1487072835.2,286046980.5,N,0.0,0.0
1487072855.9,286047037.5,N,0.0,0.0
1487072875.7,286047034.9,N,0.0,0.0
1487072895.6,286047037.0,N,0.0,0.0
1487072915.4,286047035.2,N,0.0,0.0
1487072935.2,286047035.1,N,0.0,0.0
1487072955.1,286047039.2,N,0.0,0.0
1487072956.0,286047039.2,N,0.0,0.0
1487072975.8,286047037.5,N,0.0,0.0
1487072995.6,286047038.4,N,0.0,0.0
1487073015.4,286047036.5,N,0.0,0.0
1487073035.3,286047034.9,N,0.0,0.0
1487073055.1,286047033.3,N,0.0,0.0
1487073075.8,286047015.9,N,0.0,0.0
1487073095.7,286047033.5,N,0.0,0.0
1487073115.5,286047036.6,N,0.0,0.0
1487073135.3,286047038.3,N,0.0,0.0
1487073155.2,286047040.8,N,0.0,0.0
1487073175.0,286047040.7,N,0.0,0.0
1487073175.9,286047040.7,N,0.0,0.0
1487073195.7,286047037.3,N,0.0,0.0
1487073215.6,286047040.6,N,0.0,0.0
1487073235.4,286047039.1,N,0.0,0.0
1487073255.2,286047038.3,N,0.0,0.0
1487073275.1,286047041.6,N,0.0,0.0
1487073276.0,286047041.6,N,0.0,0.0
1487073295.8,286047042.5,N,0.0,0.0
1487073315.6,286047047.1,N,0.0,0.0
1487073335.5,286047044.7,N,0.0,0.0
1487073355.3,286047047.3,N,0.0,0.0
1487073375.4,286047045.0,N,0.0,0.0
1487073395.3,286047044.5,N,0.0,0.0
1487073415.1,286047046.7,N,0.0,0.0
1487073435.8,286047043.4,N,0.0,0.0
1487073455.7,286047043.3,N,0.0,0.0
1487073475.5,286047043.3,N,0.0,0.0
1487073495.3,286047044.6,N,0.0,0.0
1487073515.2,286047047.6,N,0.0,0.0
1487073535.9,286047046.6,N,0.0,0.0
1487073555.7,286047047.1,N,0.0,0.0
1487073575.6,286047044.6,N,0.0,0.0
1487073595.4,286047044.1,N,0.0,0.0
